Regional Weather Roundup
Issued by NWS

Home | Current Version | Previous Version | Text Only | Print | Product List | Glossary On
Versions: 1 2 3 4 5 6 7 8 9 10 11 12 13 14 15 16 17 18 19 20 21 22 23 24 25 26 27
000
ASUS42 KTBW 280217
RWRFL
FLORIDA REGIONAL WEATHER ROUNDUP
NATIONAL WEATHER SERVICE TAMPA BAY RUSKIN FL
1000 PM EDT FRI MAY 27 2016

NOTE: "FAIR" INDICATES FEW OR NO CLOUDS BELOW 12,000 FEET WITH NO
SIGNIFICANT WEATHER AND/OR OBSTRUCTIONS TO VISIBILITY.

FLZ001>010-012>015-112-114-115-280300-
PANHANDLE FLORIDA

CITY           SKY/WX    TMP DP  RH WIND       PRES   REMARKS
PENSACOLA      CLOUDY    76  65  68 S7        29.99R
PENSACOLA NAS  MOCLDY    77  65  66 S9        29.99R
MILTON NAS     MOCLDY    74  68  81 VRB6      30.00R
CRESTVIEW      CLOUDY    75  66  73 CALM      30.02R
DUKE FIELD     FAIR      75  65  70 S3        30.00R
VALPARAISO     CLOUDY    78  65  66 S7        30.00R
MARY ESTHER    CLOUDY    77  65  65 S7        29.99R
TRI COUNTY     MOCLDY    77  65  66 CALM      30.01R
PANAMA CITY    FAIR      74  67  78 CALM      29.99R
TYNDALL AFB    MOCLDY    74  70  85 S6        29.99R
APALACHICOLA   CLEAR     72  67  84 CALM      29.98R

STATION/POSITION SKY/WX   TEMP    WIND        PRES    WAVE   SWELL
                          AIR SEA DIR/SP/G            HT/PER HT/PER
                          (F)     (DEG/KT/KT) (MB)    (FT/S) (FT/S)
30.1N   87.6W              78 80  150/ 16/ 17 1014.5R   3/ 5
29.2N   88.2W              79 80  130/ 14/ 17 1014.5R
28.8N   86.0W              78 80  110/ 10/ 12 1015.3R   3/ 5   2/ 5
PANAMA CITY BEAC                  170/ 12/ 14 1015.5R
TOWER C                    76      20/  3/  4 1015.9R
28.5N   84.5W              78 78   60/  6/  6 1014.9R   2/ 5   2/ 5

$$
FLZ011-016>038-118-127-128-134-139-239-280300-
NORTH FLORIDA

CITY           SKY/WX    TMP DP  RH WIND       PRES   REMARKS
MARIANNA       CLEAR     79  60  52 CALM      29.99R
TALLAHASSEE    PTCLDY    76  63  64 CALM      29.99R
PERRY          CLEAR     77  65  66 CALM      30.01R
LIVE OAK       FAIR      79  66  65 E8        30.05R
CROSS CITY       N/A     78  64  61 E5        30.00R
LAKE CITY      FAIR      73  68  83 E5        30.04R
GAINESVILLE    CLEAR     73  64  73 E6        30.03R
WILLISTON      FAIR      79  64  61 NE6       30.02R
PALATKA        FAIR      73  73 100 E5        30.03R
MAYPORT NAS    CLEAR     76  67  73 E9        30.04R
JACKSONVILLE   PTCLDY    71  67  87 NE3       30.04R
JAX NAS        PTCLDY    79  66  64 NE6       30.05R
JAX CECIL        N/A     73  66  78 CALM      30.04S
FERNANDINA BEA FAIR      79  64  61 E6        30.04R
ST AUGUSTINE   CLEAR     78  68  71 E13       30.04R
PALM COAST     FAIR      74  68  80 E3        30.02S

STATION/POSITION SKY/WX   TEMP    WIND        PRES    WAVE   SWELL
                          AIR SEA DIR/SP/G            HT/PER HT/PER
                          (F)     (DEG/KT/KT) (MB)    (FT/S) (FT/S)
SHELL POINT                80     210/  2/  3 1013.7
KEATON BEACH               76      60/  6/  8 1015.5R
CEDAR KEY                  80      80/ 13/ 15 1016.1R
FERNANDINA                         60/  2/  6 1017.2R
30.7N   81.3W                 78                N/A     4/ 6
MAYPORT                            80/  8/ 10 1017.2R
31.4N   80.9W              76 77   70/ 12/ 16 1017.7R   4/ 6   2/11
ST AUGUSTINE               77 80   80/ 12/ 13 1017.9R

$$
FLZ040-043>046-052-053-057-058-063-144-280300-
INTERIOR CENTRAL FLORIDA

CITY           SKY/WX    TMP DP  RH WIND       PRES   REMARKS
OCALA          CLEAR     77  63  61 E5        30.02R
THE VILLAGES     N/A     77  68  73 SE7       29.92R
LEESBURG       CLEAR     77  66  68 E10       30.02R
SANFORD        CLEAR     75  66  73 NE5       30.01R
ORLANDO EXEC   CLEAR     78  67  68 NE7       30.01R
ORLANDO INTL   CLEAR     76  67  73 NE9       30.01R
KISSIMMEE      MOCLDY    77  70  78 E5        30.01R
WINTER HAVEN   PTCLDY    77  66  68 NE3       30.01R
LAKELAND       PTCLDY    79  66  65 E13       30.00R
BARTOW         FAIR      75  66  73 E3        30.00R
OKEECHOBEE     DRIZZLE   70  70 100 NE5       29.99R

$$
FLZ041-047-054-059-064-141-147-280300-
EAST CENTRAL FLORIDA

CITY           SKY/WX    TMP DP  RH WIND       PRES   REMARKS
DAYTONA BEACH  PTCLDY    76  67  73 E7        30.02R
DELAND           N/A     72  66  83 CALM      30.03S
JFK SPACE CTR  PTCLDY    74  68  81 NE7       29.99R
CAPE CANAVERAL CLEAR     77  69  75 VRB6      29.98R
PATRICK AFB    PTCLDY    79  71  76 NE12      29.98S
MELBOURNE      PTCLDY    77  71  82 NE9       29.99R
VERO BEACH     PTCLDY    79  70  74 NE10      29.99R
FT PIERCE      MOCLDY    75  71  87 SE9       29.98R

STATION/POSITION SKY/WX   TEMP    WIND        PRES    WAVE   SWELL
                          AIR SEA DIR/SP/G            HT/PER HT/PER
                          (F)     (DEG/KT/KT) (MB)    (FT/S) (FT/S)
28.5N   80.2W              78 79   60/ 14/ 16 1015.3S
28.9N   78.5W              77 78   40/ 12/ 16 1014.7F
TRIDENT PIER                       20/  5/  7 1015.3F
28.4N   80.5W                 80                N/A     3/ 7
27.5N   80.2W                 79                N/A     5/ 6

$$
FLZ050-056-061-142-242-148-248-149-249-151-251-155-255-
160-260-280300-
WEST CENTRAL FLORIDA

CITY           SKY/WX    TMP DP  RH WIND       PRES   REMARKS
CRYSTAL RIVER  FAIR      77  64  65 E6        30.00R
INVERNESS      CLOUDY    79  68  69 E8        30.01R
BROOKSVILLE    CLEAR     76  65  68 E8        30.00R
ZEPHYRHILLS    FAIR      74  64  71 CALM      30.00R
CLEARWATER AIR CLOUDY    77  66  69 E7G16     29.97R
ST PETE CLEARW CLEAR     81  65  58 E13       29.97R
TAMPA INTL     PTCLDY    82  64  54 E9        29.98R
TAMPA EXEC     CLEAR     79  68  69 E5        29.99R
PLANT CITY     CLEAR     79  70  73 E7        30.01R
MACDILL AFB    CLEAR     80  68  66 E13       29.97R
PETER O KNIGHT CLEAR     81  68  65 E7        29.98R
ST PETERSBURG  CLEAR     81  68  64 E20       29.96R
SARASOTA       PTCLDY    82  66  58 E13G22    29.95R
VENICE         NOT AVBL

STATION/POSITION SKY/WX   TEMP    WIND        PRES    WAVE   SWELL
                          AIR SEA DIR/SP/G            HT/PER HT/PER
                          (F)     (DEG/KT/KT) (MB)    (FT/S) (FT/S)
27.3N   84.2W                 81                N/A     2/ 5
CLEARWATER BEACH                  340/ 13/ 14 1014.4R
MIDDLE TAMPA BAY NOT AVBL
VENICE                     80 81   80/ 11/ 14 1014.2R

$$
FLZ066-069-070-075>078-162-262-165-265-280300-
SOUTHWEST FLORIDA AND KEYS

CITY           SKY/WX    TMP DP  RH WIND       PRES   REMARKS
PUNTA GORDA    CLEAR     77  68  73 E9        29.97R
FT MYERS       CLEAR     78  69  73 E9        29.95R
SOUTHWEST INTL CLEAR     78  69  73 E12       29.96R
NAPLES         CLOUDY    75  73  93 CALM      29.96R
MARCO ISLAND   MOCLDY    73  68  83 W3        29.97R
MARATHON       PTCLDY    81  68  64 E6        29.94R
KEY WEST NAS   PTCLDY    80  70  71 E10       29.93S
KEY WEST INTL  CLEAR     80  70  71 E7        29.94R

STATION/POSITION SKY/WX   TEMP    WIND        PRES    WAVE   SWELL
                          AIR SEA DIR/SP/G            HT/PER HT/PER
                          (F)     (DEG/KT/KT) (MB)    (FT/S) (FT/S)
NAPLES                                        1013.8R
26.0N   85.6W              80 81  100/ 14/ 16 1014.0R   3/ 6
DRY TORTUGAS               80     140/  8/  9 1013.8R
SAND KEY                   81     120/ 12/ 14 1014.0R
LONG KEY                   81 83   90/ 10/ 12 1014.3R

$$
FLZ067-068-071>074-168-172>174-280300-
SOUTHEAST FLORIDA

CITY           SKY/WX    TMP DP  RH WIND       PRES   REMARKS
W PALM BEACH   LGT RAIN  79  70  74 E7        29.97R
BOCA RATON     PTCLDY    75  72  88 E6        29.95R
FT LAUDER-EXEC CLEAR     79  69  71 NE9       29.95R
FT LAUDERDALE  MOCLDY    80  69  69 E14       29.95R
POMPANO BEACH  CLEAR     79  71  76 E9        29.95R
PEMBROKE PINES PTCLDY    80  70  71 E8        29.97R
OPA LOCKA      PTCLDY    79  71  76 E7        29.96R
MIAMI          PTCLDY    80  70  71 E10       29.96R
WEST KENDALL   CLEAR     76  69  79 E5        29.95R
HOMESTEAD      CLEAR     78  72  80 E5        29.95R

STATION/POSITION SKY/WX   TEMP    WIND        PRES    WAVE   SWELL
                          AIR SEA DIR/SP/G            HT/PER HT/PER
                          (F)     (DEG/KT/KT) (MB)    (FT/S) (FT/S)
PORT EVERGLADES            80      80/  8/ 11 1014.3R
VIRGINIA KEY                       70/ 11/ 13 1013.8R
LAKE WORTH                         30/ 11/ 13 1013.9S
FOWEY ROCKS                80 83   70/ 11/ 12 1014.8R
SETTLEMENT POINT           78      70/ 11/ 12 1015.1R

$$





USA.gov is the U.S. government's official web portal to all federal, state and local government web resources and services.